sat.trackr.live / text

‹ back to catalog

STARLINK-31333

NORAD 58971 · 2024-031G

PAYLOAD ACTIVE UNKNOWN

§ Identity

Operator
Country
US
Launch date
2024-02-15
Launch site
AFWTR
Launch vehicle
Mass (kg)
RCS (m²)

Purposes: comms

External: N2YO · Heavens-Above · Gunter

§ Orbital elements

Epoch: 2026-05-24T19:21:51.296544Z

Period
94.11 min
Inclination
53.1604°
Eccentricity
0.0001230
Mean motion
15.30192802 rev/d
Perigee alt
474.4 km
Apogee alt
476.1 km
Semi-major
6,853.4 km
B*
2.7475e-5
RAAN
290.5959°
Arg perigee
85.5333°
Mean anomaly
274.5808°
Rev number
12,836

§ Raw data

STARLINK-313331 58971U 24031G   26144.80684371  .00000454  00000+0  27475-4 0  99952 58971  53.1604 290.5959 0001230  85.5333 274.5808 15.30192802128368

JSON: /api/v1/satellites/58971 · /tle

For live sub-satellite position, see the globe view (requires WebGL).

§ Visibility from observer

Set your observer location to see the next 7 days of passes ≥ 10°. The values pass through the URL so the page stays shareable.

No JS? Fill the form by hand. The geolocation button needs JavaScript.